sat.trackr.live / text

‹ back to catalog

STARLINK-3917

NORAD 52588 · 2022-051BE

PAYLOAD ACTIVE UNKNOWN

§ Identity

Operator
Country
US
Launch date
2022-05-13
Launch site
AFWTR
Launch vehicle
Mass (kg)
RCS (m²)

Purposes: comms

External: N2YO · Heavens-Above · Gunter

§ Orbital elements

Epoch: 2026-09-20T04:30:00.393120Z

Period
93.79 min
Inclination
53.1615°
Eccentricity
0.0001181
Mean motion
15.35402254 rev/d
Perigee alt
458.9 km
Apogee alt
460.5 km
Semi-major
6,837.9 km
B*
2.5738e-5
RAAN
319.5622°
Arg perigee
66.9668°
Mean anomaly
293.1460°
Rev number
24,103

§ Raw data

STARLINK-39171 52588U 22051BE  26263.18750455  .00000517  00000+0  25738-4 0  99932 52588  53.1615 319.5622 0001181  66.9668 293.1460 15.35402254241037

JSON: /api/v1/satellites/52588 · /tle

For live sub-satellite position, see the globe view (requires WebGL).

§ Visibility from observer

Set your observer location to see the next 7 days of passes ≥ 10°. The values pass through the URL so the page stays shareable.

No JS? Fill the form by hand. The geolocation button needs JavaScript.